TimeMDT,TemperatureF,Dew PointF,Humidity,Sea Level PressureIn,VisibilityMPH,Wind Direction,Wind SpeedMPH,Gust SpeedMPH,PrecipitationIn,Events,Conditions,WindDirDegrees,DateUTC
12:53 AM,43.0,37.9,82,29.98,10.0,WSW,19.6,25.3,N/A,,Overcast,240,2013-04-20 06:53:00
1:53 AM,42.1,39.0,89,29.99,10.0,SW,18.4,-,0.00,Rain,Light Rain,230,2013-04-20 07:53:00
2:24 AM,41.0,37.4,87,30.00,10.0,SW,18.4,-,0.01,Rain,Light Rain,230,2013-04-20 08:24:00
2:53 AM,41.0,37.0,86,30.00,10.0,WSW,17.3,-,0.01,Rain,Light Rain,240,2013-04-20 08:53:00
3:53 AM,39.9,37.9,93,29.99,10.0,SW,15.0,-,0.00,Rain,Light Rain,230,2013-04-20 09:53:00
4:53 AM,39.9,37.9,93,30.00,9.0,WSW,16.1,-,0.03,Rain,Light Rain,240,2013-04-20 10:53:00
5:53 AM,39.9,37.9,93,30.01,10.0,WSW,10.4,-,0.02,,Overcast,250,2013-04-20 11:53:00
6:53 AM,39.9,37.9,93,30.02,10.0,SW,13.8,-,N/A,,Overcast,230,2013-04-20 12:53:00
7:53 AM,39.9,37.9,93,30.05,10.0,WSW,12.7,-,0.00,,Overcast,240,2013-04-20 13:53:00
8:53 AM,41.0,37.9,89,30.06,10.0,SW,15.0,-,N/A,,Overcast,220,2013-04-20 14:53:00
9:53 AM,43.0,39.0,86,30.07,10.0,WSW,20.7,-,N/A,,Mostly Cloudy,240,2013-04-20 15:53:00
10:53 AM,45.0,37.9,76,30.08,10.0,SW,23.0,26.5,0.00,,Mostly Cloudy,230,2013-04-20 16:53:00
11:53 AM,48.9,39.0,69,30.07,10.0,SW,18.4,-,N/A,,Mostly Cloudy,230,2013-04-20 17:53:00
12:53 PM,52.0,37.0,57,30.04,10.0,SW,25.3,33.4,N/A,,Mostly Cloudy,230,2013-04-20 18:53:00
1:53 PM,55.9,33.1,42,30.01,10.0,SW,27.6,36.8,N/A,,Mostly Cloudy,230,2013-04-20 19:53:00
2:53 PM,55.9,32.0,40,30.01,10.0,WSW,28.8,38.0,N/A,,Mostly Cloudy,240,2013-04-20 20:53:00
3:53 PM,57.9,28.0,32,29.99,10.0,WSW,31.1,39.1,N/A,,Scattered Clouds,250,2013-04-20 21:53:00
4:53 PM,57.0,24.1,28,29.98,10.0,WSW,29.9,38.0,N/A,,Scattered Clouds,250,2013-04-20 22:53:00
5:53 PM,55.0,25.0,31,29.99,10.0,WSW,31.1,40.3,N/A,,Scattered Clouds,250,2013-04-20 23:53:00
6:53 PM,54.0,26.1,34,29.99,10.0,WSW,27.6,35.7,N/A,,Clear,240,2013-04-21 00:53:00
7:53 PM,50.0,26.1,39,30.01,10.0,WSW,25.3,-,N/A,,Partly Cloudy,240,2013-04-21 01:53:00
8:53 PM,48.0,27.0,44,30.04,10.0,SW,21.9,27.6,N/A,,Partly Cloudy,220,2013-04-21 02:53:00
9:53 PM,46.9,28.9,50,30.06,10.0,SW,19.6,27.6,N/A,,Mostly Cloudy,220,2013-04-21 03:53:00
10:53 PM,45.0,28.0,52,30.06,10.0,SSW,17.3,-,N/A,,Clear,210,2013-04-21 04:53:00
11:53 PM,45.0,26.1,48,30.05,10.0,SW,18.4,-,N/A,,Clear,220,2013-04-21 05:53:00